Location: Hemaruka
(51.7801°N, 111.0917°W)
Time: 10:42:47
(UTC+00:00)

NOAA 15 - Pass Details

Date: 14 December 2023
Orbit: 797 x 810 km, 98.6° (Epoch: 02 March)

Event Time Altitude Azimuth Distance (km) Brightness Sun altitude
Rises 02:07:47 0° 167° (SSE) 3,313 7.7 -25.5°
Reaches altitude 10° 02:10:07 10° 168° (SSE) 2,384 7.0 -25.8°
Maximum altitude 02:15:24 78° 255° (WSW) 829 4.6 -26.7°
Drops below altitude 10° 02:20:42 10° 343° (NNW) 2,393 7.2 -27.5°
Sets 02:23:03 0° 345° (NNW) 3,326 8.0 -27.8°
